Home > Weather > Garland > Past weeks

Flag for USA Past Weather in Garland, Texas, USA — Yesterday and Last 2 Weeks

Now
77 °F

Sunny.


Feels Like: 79 °F
Forecast: 71 / 80 °F
Wind: 17 mph from Southeast

Location: Mesquite Metro Airport

Current Time: May 26, 2016 at 7:32:51 PM

Latest Report: May 26, 2016 at 6:50 PM


Visibility: 10 mi

Pressure: 29.81 "Hg

Humidity: 74%

Dew Point: 68 °F

Location of GarlandLocation

Past Weather in Garland — Graph

°F

Garland Temperature Yesterday

Maximum temperature yesterday: 86 °F (at 3:50 PM)
Minimum temperature yesterday: 74 °F (at 5:55 AM)
Average temperature yesterday: 80 °F

High & Low Weather Summary for the Past Weeks

 TemperatureHumidityPressure
High86 °F (May 21, 3:50 PM)100% (May 17, 6:50 AM)30.23 "Hg (May 17, 6:50 AM)
Low57 °F (May 18, 6:50 AM)34% (May 13, 12:50 PM)29.81 "Hg (May 26, 5:50 PM)
Average70 °F79%30.01 "Hg
* Reported May 11 5:50 PM — May 26 5:50 PM, Garland, Weather by CustomWeather, © 2016

Note: Actual official high and low records may vary slightly from our data, if they occured in-between our weather recording intervals... More about our weather records

Advertising

Garland Weather History for the Previous 24 Hours

Scroll right to see more
 ConditionsComfort  
Time TempWeatherWind HumidityBarometerVisibility
5:50 PM
Thu, May 26
79 °FSunny.15 mph65%29.81 "Hg10 mi
4:50 PM79 °FSunny.21 mph65%29.82 "Hg10 mi
3:50 PM75 °FSunny.15 mph78%29.85 "Hg10 mi
2:50 PM75 °FSunny.12 mph74%29.87 "Hg10 mi
12:50 PM75 °FSunny.10 mph74%29.88 "Hg7 mi
11:50 AM72 °FThunderstorms. Mostly cloudy.20 mph83%29.86 "Hg5 mi
10:50 AM75 °FThunderstorms. Low clouds.18 mph100%29.92 "Hg2 mi
9:50 AM75 °FThunderstorms. Low clouds.16 mph100%29.94 "Hg2 mi
8:50 AM75 °FFog.9 mph94%29.94 "Hg4 mi
7:50 AM75 °FFog.15 mph94%29.93 "Hg5 mi
6:50 AM75 °FFog.12 mph94%29.94 "Hg6 mi
6:15 AM76 °FOvercast.13 mph93%29.94 "Hg10 mi
5:55 AM76 °FOvercast.12 mph93%29.94 "Hg10 mi
5:35 AM76 °FOvercast.13 mph93%29.94 "Hg10 mi
5:15 AM76 °FMostly cloudy.12 mph93%29.94 "Hg10 mi
4:55 AM76 °FMostly cloudy.12 mph93%29.94 "Hg10 mi
4:15 AM76 °FOvercast.12 mph90%29.94 "Hg10 mi
3:55 AM76 °FOvercast.10 mph91%29.94 "Hg10 mi
3:35 AM76 °FOvercast.12 mph90%29.94 "Hg10 mi
3:15 AM77 °FOvercast.10 mph90%29.94 "Hg10 mi
2:55 AM77 °FOvercast.10 mph89%29.94 "Hg10 mi
2:35 AM77 °FOvercast.10 mph88%29.94 "Hg10 mi
2:15 AM77 °FPassing clouds.7 mph88%29.94 "Hg10 mi
1:55 AM77 °FPassing clouds.9 mph87%29.94 "Hg10 mi
1:35 AM78 °FClear.8 mph85%29.94 "Hg10 mi
1:15 AM78 °FClear.8 mph85%29.95 "Hg10 mi
12:55 AM78 °FClear.12 mph85%29.95 "Hg10 mi
12:35 AM78 °FClear.10 mph85%29.95 "Hg10 mi
12:15 AM79 °FPassing clouds.10 mph84%29.96 "Hg10 mi
11:55 PM
Wed, May 25
80 °FOvercast.13 mph81%29.96 "Hg10 mi
11:35 PM80 °FMostly cloudy.13 mph81%29.96 "Hg10 mi
11:15 PM80 °FMostly cloudy.10 mph84%29.97 "Hg10 mi
10:55 PM80 °FOvercast.9 mph84%29.96 "Hg10 mi
10:15 PM80 °FOvercast.10 mph83%29.95 "Hg10 mi
9:55 PM80 °FPassing clouds.10 mph83%29.95 "Hg10 mi
9:15 PM81 °FPartly sunny.13 mph82%29.93 "Hg10 mi
8:55 PM81 °FOvercast.12 mph82%29.93 "Hg7 mi
8:35 PM81 °FOvercast.10 mph82%29.93 "Hg7 mi
8:15 PM82 °FMostly cloudy.9 mph81%29.94 "Hg7 mi
7:50 PM82 °FOvercast.9 mph79%29.94 "Hg6 mi
Weather by CustomWeather, © 2016

See weather overviewHow to use our weather pages